Weather History for Kendall, FL

Change the Weather History Date:

Tuesday, May 7, 2013

  Actual Average Record
Temperature  
Mean Temperature 73 °F -  
Max Temperature 86 °F 86 °F 91 °F (1998)
Min Temperature 62 °F 64 °F 57 °F (2001)
Cooling Degree Days 8    
Growing Degree Days 23 (Base 50)    
Moisture  
Dew Point 62 °F    
Average Humidity 75    
Maximum Humidity 100    
Minimum Humidity 40    
Precipitation  
Precipitation 0.00 in - - ()
Sea Level Pressure  
Sea Level Pressure 30.03 in    
Wind  
Wind Speed 5 mph (WNW)    
Max Wind Speed 16 mph    
Max Gust Speed 23 mph    
Visibility 8 miles    
Events Fog    
Averages and records for this station are not official NWS values.
T = Trace of Precipitation, MM = Missing Value Source: NWS Daily Summary

Daily Weather History Graph

Daily Weather History Graph

Search for Another Location

Airport:

Trip Planner

Search our weather history database for the weather conditions in past years. The results will help you decide how hot, cold, wet, or windy it might be!

Date:

Astronomy

May. 07, 2013 Rise Set
Actual Time 6:40 AM EDT 7:56 PM EDT
Civil Twilight 6:16 AM EDT 8:20 PM EDT
Nautical Twilight 5:47 AM EDT 8:49 PM EDT
Astronomical Twilight 5:17 AM EDT 9:19 PM EDT
Moon 5:01 AM EDT (5/7) 6:03 PM EDT (5/7)
Length of Visible Light 14h 04m
Length of Day
13h 15m
Waning Crescent, 5% of the Moon is Illuminated
May 7
Waning Crescent
May 9
New
May 18
First Quarter
May 25
Full
May 31
Last Quarter

Hourly Weather History & Observations

Time (EDT) Temp. Heat Index Dew Point Humidity Pressure Visibility Wind Dir Wind Speed Gust Speed Precip Events Conditions
12:53 AM 69.1 °F - 64.9 °F 87% 30.02 in 10.0 mi SW 3.5 mph - N/A   Clear
1:53 AM 66.9 °F - 64.0 °F 90% 30.01 in 10.0 mi Calm Calm - N/A   Clear
2:53 AM 66.0 °F - 64.0 °F 93% 29.99 in 10.0 mi Calm Calm - N/A   Clear
3:53 AM 66.2 °F - 64.4 °F 94% 30.00 in 7.0 mi Calm Calm - N/A   Clear
4:28 AM 64.4 °F - 64.4 °F 100% 30.00 in 2.5 mi WNW 3.5 mph - N/A   Clear
4:37 AM 62.6 °F - 62.6 °F 100% 30.00 in 7.0 mi WNW 3.5 mph - N/A   Clear
4:46 AM 62.6 °F - 62.6 °F 100% 30.00 in 1.0 mi WNW 4.6 mph - N/A   Mist
4:53 AM 62.1 °F - 62.1 °F 100% 30.00 in 0.2 mi WNW 4.6 mph - N/A Fog Fog
4:59 AM 62.6 °F - 62.6 °F 100% 30.00 in 0.8 mi NW 4.6 mph - N/A   Mist
5:02 AM 62.6 °F - 62.6 °F 100% 30.00 in 2.0 mi NW 4.6 mph - N/A   Partly Cloudy
5:09 AM 62.6 °F - 62.6 °F 100% 30.00 in 8.0 mi NW 4.6 mph - N/A   Partly Cloudy
5:53 AM 64.0 °F - 62.1 °F 93% 30.01 in 10.0 mi North 6.9 mph - N/A   Clear
6:53 AM 64.0 °F - 60.1 °F 87% 30.02 in 10.0 mi NNW 3.5 mph - N/A   Clear
7:53 AM 66.9 °F - 60.1 °F 79% 30.05 in 10.0 mi NNE 4.6 mph - N/A   Clear
8:53 AM 71.1 °F - 60.1 °F 68% 30.06 in 10.0 mi North 3.5 mph - N/A   Clear
9:53 AM 73.9 °F - 61.0 °F 64% 30.07 in 10.0 mi WNW 5.8 mph - N/A   Clear
10:53 AM 77.0 °F - 61.0 °F 58% 30.07 in 10.0 mi West 10.4 mph - N/A   Partly Cloudy
11:53 AM 80.1 °F 80.9 °F 60.1 °F 50% 30.06 in 10.0 mi WSW 12.7 mph - N/A   Partly Cloudy
12:53 PM 82.0 °F 82.4 °F 60.1 °F 47% 30.05 in 10.0 mi West 11.5 mph 16.1 mph N/A   Partly Cloudy
1:53 PM 84.0 °F 83.8 °F 59.0 °F 43% 30.03 in 10.0 mi West 12.7 mph 18.4 mph N/A   Scattered Clouds
2:53 PM 84.0 °F 83.5 °F 57.9 °F 41% 30.01 in 10.0 mi WSW 16.1 mph 21.9 mph N/A   Scattered Clouds
3:53 PM 84.9 °F 84.2 °F 57.9 °F 40% 30.00 in 10.0 mi West 11.5 mph 19.6 mph N/A   Partly Cloudy
4:53 PM 84.0 °F 83.5 °F 57.9 °F 41% 30.00 in 10.0 mi West 12.7 mph 20.7 mph N/A   Clear
5:53 PM 82.0 °F 82.4 °F 60.1 °F 47% 30.01 in 10.0 mi West 15.0 mph 23.0 mph N/A   Clear
6:53 PM 79.0 °F - 61.0 °F 54% 30.01 in 10.0 mi West 12.7 mph - N/A   Clear
7:53 PM 75.9 °F - 61.0 °F 60% 30.02 in 10.0 mi West 9.2 mph - N/A   Clear
8:53 PM 73.0 °F - 62.1 °F 68% 30.05 in 10.0 mi West 9.2 mph - N/A   Clear
9:53 PM 69.1 °F - 63.0 °F 81% 30.07 in 10.0 mi West 8.1 mph - N/A   Clear
10:53 PM 69.1 °F - 64.0 °F 84% 30.09 in 10.0 mi West 6.9 mph - N/A   Clear
11:53 PM 68.0 °F - 64.0 °F 87% 30.09 in 10.0 mi West 5.8 mph - N/A   Clear